Powrót do katalogu

STARLINK-37049

AktywnyŁącznośćSSO
NORAD 68152·PAYLOAD·🇺🇸 United States

Wystrzelony Mar 13, 2026 z Vandenberg Space Force Base

Loading…

Następne Przeloty (najbliższe 24 godziny)

TLE

ŚwieżeSource: CelesTrak SupGP

Epoka: Sep 15, 2026, 03:58 UTC

1 68152C 26049L   26258.16576389 -.00068745  00000+0 -21345-2 0  2587
2 68152  97.2838 278.2684 0000971  96.1392  66.5505 15.33467785    12

Śledź STARLINK-37049 w czasie rzeczywistym z AllMySat

Download on the App Store